Change the Weather History Date:

Tuesday, October 2, 2012

  Actual Average Record
Temperature  
Mean Temperature 75 °F -  
Max Temperature 84 °F 76 °F 88 °F (1968)
Min Temperature 66 °F 58 °F 36 °F (1974)
Cooling Degree Days 10    
Growing Degree Days 25 (Base 50)    
Moisture  
Dew Point 71 °F    
Average Humidity 84    
Maximum Humidity 94    
Minimum Humidity 69    
Precipitation  
Precipitation 0.10 in - - ()
Sea Level Pressure  
Sea Level Pressure 29.91 in    
Wind  
Wind Speed 6 mph (SSE)    
Max Wind Speed 14 mph    
Max Gust Speed 20 mph    
Visibility 8 miles    
Events Rain    
Averages and records for this station are not official NWS values.
T = Trace of Precipitation, MM = Missing Value Source: NWS Daily Summary

Daily Weather History Graph

Daily Weather History Graph

Search for Another Location

Airport or City:

Trip Planner

Search our weather history database for the weather conditions in past years. The results will help you decide how hot, cold, wet, or windy it might be!

Date:

Astronomy

Oct. 02, 2012 Rise Set
Actual Time 7:02 AM EDT 6:47 PM EDT
Civil Twilight 6:36 AM EDT 7:12 PM EDT
Nautical Twilight 6:06 AM EDT 7:43 PM EDT
Astronomical Twilight 5:36 AM EDT 8:13 PM EDT
Moon 8:03 PM EDT (10/2) 9:23 AM EDT (10/2)
Length of Visible Light 12h 36m
Length of Day
11h 44m
Waning Gibbous, 94% of the Moon is Illuminated
Oct 2
Waning Gibbous
Oct 8
Last Quarter
Oct 15
New
Oct 21
First Quarter
Oct 29
Full

Hourly Weather History & Observations

Time (EDT) Temp. Heat Index Dew Point Humidity Pressure Visibility Wind Dir Wind Speed Gust Speed Precip Events Conditions
12:32 AM 66.2 °F - 60.8 °F 83% 29.92 in 10.0 mi East 4.6 mph - N/A   Mostly Cloudy
1:54 AM 66.9 °F - 63.0 °F 87% 29.91 in 10.0 mi East 3.5 mph - N/A   Overcast
2:54 AM 70.0 °F - 66.0 °F 87% 29.90 in 10.0 mi East 4.6 mph - N/A   Overcast
3:08 AM 69.8 °F - 66.2 °F 88% 29.90 in 10.0 mi East 4.6 mph - N/A   Overcast
3:21 AM 69.8 °F - 66.2 °F 88% 29.90 in 10.0 mi East 3.5 mph - N/A   Overcast
3:54 AM 70.0 °F - 66.9 °F 90% 29.90 in 8.0 mi East 3.5 mph - N/A   Overcast
4:33 AM 69.8 °F - 66.2 °F 88% 29.90 in 6.0 mi East 3.5 mph - N/A   Overcast
4:54 AM 70.0 °F - 66.9 °F 90% 29.90 in 5.0 mi East 3.5 mph - N/A   Overcast
5:05 AM 69.8 °F - 66.2 °F 88% 29.89 in 4.0 mi East 4.6 mph - N/A   Mostly Cloudy
5:46 AM 69.8 °F - 66.2 °F 88% 29.88 in 2.5 mi East 4.6 mph - N/A   Partly Cloudy
5:54 AM 69.1 °F - 66.0 °F 90% 29.88 in 2.0 mi East 3.5 mph - N/A   Partly Cloudy
6:11 AM 69.8 °F - 66.2 °F 88% 29.89 in 2.0 mi East 3.5 mph - N/A   Mostly Cloudy
6:30 AM 69.8 °F - 66.2 °F 88% 29.90 in 1.5 mi Calm Calm - N/A   Mostly Cloudy
6:51 AM 69.8 °F - 68.0 °F 94% 29.90 in 2.0 mi East 5.8 mph - N/A   Overcast
6:54 AM 70.0 °F - 68.0 °F 93% 29.90 in 2.0 mi East 4.6 mph - N/A   Overcast
7:11 AM 71.6 °F - 68.0 °F 88% 29.89 in 1.8 mi East 4.6 mph - N/A   Overcast
7:29 AM 71.6 °F - 69.8 °F 94% 29.90 in 3.0 mi ESE 4.6 mph - N/A   Overcast
7:54 AM 73.0 °F - 70.0 °F 90% 29.90 in 6.0 mi SE 5.8 mph - N/A   Overcast
8:54 AM 73.9 °F - 71.1 °F 91% 29.91 in 10.0 mi SSE 6.9 mph - N/A   Overcast
9:45 AM 77.0 °F - 71.6 °F 83% 29.93 in 10.0 mi South 6.9 mph - N/A   Overcast
9:54 AM 77.0 °F - 72.0 °F 84% 29.93 in 10.0 mi South 11.5 mph - N/A   Overcast
10:17 AM 78.8 °F - 71.6 °F 78% 29.92 in 10.0 mi South 9.2 mph - N/A   Mostly Cloudy
10:54 AM 79.0 °F - 72.0 °F 79% 29.91 in 10.0 mi South 9.2 mph - 0.00 in   Overcast
11:54 AM 80.1 °F 84.2 °F 73.0 °F 79% 29.91 in 10.0 mi SSW 5.8 mph - 0.01 in Rain Light Rain
12:09 PM 80.6 °F 85.4 °F 73.4 °F 79% 29.91 in 10.0 mi South 5.8 mph 16.1 mph 0.00 in   Mostly Cloudy
12:40 PM 82.4 °F 88.2 °F 73.4 °F 74% 29.90 in 10.0 mi South 11.5 mph - 0.00 in   Overcast
12:54 PM 84.0 °F 90.2 °F 73.0 °F 69% 29.89 in 10.0 mi South 11.5 mph - 0.00 in   Mostly Cloudy
1:25 PM 82.4 °F 88.2 °F 73.4 °F 74% 29.89 in 10.0 mi South 10.4 mph - N/A   Mostly Cloudy
1:37 PM 82.4 °F 88.2 °F 73.4 °F 74% 29.88 in 10.0 mi South 13.8 mph 19.6 mph N/A   Mostly Cloudy
1:54 PM 82.9 °F 88.8 °F 73.0 °F 72% 29.88 in 10.0 mi South 9.2 mph - N/A   Mostly Cloudy
2:17 PM 78.8 °F - 73.4 °F 83% 29.88 in 1.8 mi SSE 12.7 mph - 0.07 in Rain Rain
2:24 PM 78.8 °F - 75.2 °F 89% 29.89 in 3.0 mi SSE 6.9 mph - 0.07 in Rain Light Rain
2:54 PM 80.1 °F 85.1 °F 75.0 °F 85% 29.88 in 10.0 mi South 9.2 mph - 0.08 in   Overcast
3:54 PM 79.0 °F - 73.9 °F 84% 29.86 in 10.0 mi South 10.4 mph - N/A   Partly Cloudy
4:54 PM 81.0 °F 86.2 °F 73.9 °F 79% 29.87 in 10.0 mi South 5.8 mph - 0.01 in   Scattered Clouds
5:05 PM 80.6 °F 85.4 °F 73.4 °F 79% 29.87 in 10.0 mi South 5.8 mph - N/A   Mostly Cloudy
5:25 PM 80.6 °F 85.4 °F 73.4 °F 79% 29.88 in 10.0 mi South 6.9 mph - N/A   Mostly Cloudy
5:49 PM 80.6 °F 85.4 °F 73.4 °F 79% 29.89 in 10.0 mi South 5.8 mph - N/A   Overcast
5:54 PM 80.1 °F 84.5 °F 73.9 °F 81% 29.88 in 10.0 mi South 5.8 mph - N/A   Overcast
6:18 PM 80.6 °F 85.4 °F 73.4 °F 79% 29.89 in 10.0 mi South 4.6 mph - N/A   Mostly Cloudy
6:33 PM 80.6 °F 85.4 °F 73.4 °F 79% 29.90 in 10.0 mi South 6.9 mph - N/A   Mostly Cloudy
6:41 PM 78.8 °F - 73.4 °F 83% 29.90 in 10.0 mi SSW 5.8 mph - N/A   Overcast
6:54 PM 79.0 °F - 73.0 °F 82% 29.90 in 10.0 mi South 4.6 mph - N/A   Mostly Cloudy
7:14 PM 78.8 °F - 73.4 °F 83% 29.91 in 10.0 mi South 4.6 mph - N/A   Mostly Cloudy
7:26 PM 78.8 °F - 73.4 °F 83% 29.91 in 10.0 mi South 6.9 mph - N/A   Mostly Cloudy
7:36 PM 78.8 °F - 73.4 °F 83% 29.91 in 10.0 mi South 8.1 mph - N/A   Mostly Cloudy
7:47 PM 78.8 °F - 73.4 °F 83% 29.92 in 10.0 mi South 8.1 mph - N/A   Scattered Clouds
7:54 PM 78.8 °F - 73.4 °F 83% 29.92 in 10.0 mi South 9.2 mph - N/A   Partly Cloudy
8:54 PM 78.1 °F - 73.0 °F 84% 29.94 in 10.0 mi South 8.1 mph - N/A   Partly Cloudy
9:24 PM 78.8 °F - 73.4 °F 83% 29.95 in 10.0 mi South 6.9 mph - N/A   Mostly Cloudy
9:54 PM 77.0 °F - 73.4 °F 89% 29.95 in 10.0 mi South 8.1 mph - N/A   Scattered Clouds
10:42 PM 77.0 °F - 73.4 °F 89% 29.95 in 10.0 mi South 6.9 mph - N/A   Mostly Cloudy
10:51 PM 77.0 °F - 73.4 °F 89% 29.96 in 10.0 mi South 5.8 mph - N/A   Scattered Clouds
10:54 PM 77.0 °F - 73.0 °F 88% 29.96 in 10.0 mi South 4.6 mph - N/A   Scattered Clouds
11:08 PM 77.0 °F - 73.4 °F 89% 29.96 in 10.0 mi South 6.9 mph - N/A   Mostly Cloudy
11:54 PM 77.0 °F - 73.0 °F 88% 29.96 in 10.0 mi SSW 6.9 mph - N/A   Overcast